Date String (YYYY-MM-DD hh:mm:ss) UTC,Instrument flags,absolute air pressure of the measurement (hPa),sample flow rate (lpm),inlet stack bypass flow (lpm),air temperature of the measurement (°C),ambient temperature measured by the external sensor (°C),aerosol sample conditioner tube jacket temperature (°C),OPC LED temperature (°C),internal box temperature (°C),relative humidity of the measurement (%),span deviation,mass concentration of particles derived from Lorenz-Mie calculation of OPC scattering (μg/m³),mass concentration of particles derived from Lorenz-Mie calculation of OPC scattering (μg/m³),mass concentration of particles derived from Lorenz-Mie calculation of OPC scattering (μg/m³)
DateTimeUTC,F1_M11,P_M11,Q1_M11,Q2_M11,T1_M11,T2_M11,T3_M11,T4_M11,T5_M11,U1_M11,ZSPAN_M11,X0_M11,X2_M11,X1_M11
2024-05-29 06:00:00,SystemResetWarning,0834.2,4.99,000.00,031.0,030.2,000.0,039.5,032.6,026.5,0000.5,0021.84,0006.24,0004.28
2024-05-29 06:01:00,SystemResetWarning,0834.4,5.00,000.00,031.0,030.1,000.0,039.5,032.6,026.5,0001.2,0021.36,0006.30,0004.30
2024-05-29 06:02:00,SystemResetWarning,0834.4,5.00,000.00,031.0,030.1,000.0,039.5,032.6,026.6,0002.2,0020.10,0006.29,0004.32
2024-05-29 06:03:00,SystemResetWarning,0834.3,5.00,000.00,031.0,030.1,000.0,039.5,032.6,026.6,0002.5,0019.76,0006.38,0004.33
2024-05-29 06:04:00,SystemResetWarning,0834.2,5.00,000.00,031.0,030.1,000.0,039.5,032.6,026.4,0002.6,0020.02,0006.41,0004.35
2024-05-29 06:05:00,SystemResetWarning,0834.2,5.01,000.00,031.0,030.1,000.0,039.5,032.6,026.3,0003.1,0019.93,0006.45,0004.36
2024-05-29 06:06:00,SystemResetWarning,0834.2,5.00,000.00,031.0,030.1,000.0,039.5,032.6,026.3,0001.6,0019.54,0006.42,0004.36
2024-05-29 06:07:00,SystemResetWarning,0834.2,5.00,000.00,031.0,030.1,000.0,039.5,032.6,026.3,0003.9,0019.92,0006.48,0004.38
2024-05-29 06:08:00,SystemResetWarning,0834.1,5.00,000.00,031.0,030.1,000.0,039.5,032.6,026.4,0004.5,0020.32,0006.62,0004.40
2024-05-29 06:09:00,SystemResetWarning,0834.1,5.00,000.00,030.9,030.1,000.0,039.5,032.6,026.4,0004.4,0021.66,0006.67,0004.40
2024-05-29 06:10:00,SystemResetWarning,0834.0,5.00,000.00,030.9,030.0,000.0,039.5,032.6,026.4,0004.4,0023.15,0006.69,0004.40
2024-05-29 06:11:00,SystemResetWarning,0834.1,5.00,000.00,030.9,030.0,000.0,039.5,032.6,026.4,0004.4,0021.75,0006.63,0004.41
2024-05-29 06:12:00,SystemResetWarning,0834.1,5.00,000.00,030.9,030.0,000.0,039.5,032.6,026.4,0004.1,0020.56,0006.53,0004.40
2024-05-29 06:13:00,SystemResetWarning,0834.1,5.00,000.00,030.9,030.0,000.0,039.5,032.6,026.3,0003.2,0020.43,0006.51,0004.39
2024-05-29 06:14:00,SystemResetWarning,0834.1,5.00,000.00,030.9,030.0,000.0,039.5,032.5,026.2,0002.5,0020.66,0006.48,0004.41
2024-05-29 06:15:00,SystemResetWarning,0834.1,5.00,000.00,030.9,030.0,000.0,039.4,032.5,026.2,0003.0,0021.17,0006.48,0004.41
2024-05-29 06:16:00,SystemResetWarning,0834.1,5.00,000.00,030.9,030.0,000.0,039.4,032.5,026.2,0003.1,0021.58,0006.49,0004.39
2024-05-29 06:17:00,SystemResetWarning,0834.1,5.01,000.00,030.9,030.0,000.0,039.4,032.5,026.2,0002.3,0023.26,0006.51,0004.39
2024-05-29 06:18:00,SystemResetWarning,0834.1,5.00,000.00,030.9,030.0,000.0,039.4,032.5,026.3,0002.2,0023.33,0006.41,0004.38
2024-05-29 06:19:00,SystemResetWarning,0834.2,4.99,000.00,030.9,030.0,000.0,039.4,032.5,026.3,0002.1,0023.65,0006.32,0004.34
2024-05-29 06:20:00,SystemResetWarning,0834.2,4.99,000.00,030.9,030.0,000.0,039.4,032.5,026.3,0002.2,0022.51,0006.27,0004.34
2024-05-29 06:21:00,SystemResetWarning,0834.2,4.99,000.00,030.8,030.0,000.0,039.4,032.5,026.3,0001.8,0021.18,0006.25,0004.34
2024-05-29 06:22:00,SystemResetWarning,0834.2,5.00,000.00,030.8,030.0,000.0,039.4,032.5,026.3,0000.9,0020.84,0006.25,0004.33
2024-05-29 06:23:00,SystemResetWarning,0834.2,5.01,000.00,030.8,030.0,000.0,039.4,032.5,026.2,0001.1,0021.12,0006.30,0004.33
2024-05-29 06:24:00,SystemResetWarning,0834.2,5.00,000.00,030.8,030.0,000.0,039.3,032.5,026.2,0001.3,0021.12,0006.28,0004.32
2024-05-29 06:25:00,SystemResetWarning,0834.2,5.00,000.00,030.8,030.0,000.0,039.3,032.5,026.2,0001.3,0021.17,0006.27,0004.30
2024-05-29 06:26:00,SystemResetWarning,0834.2,4.99,000.00,030.8,030.0,000.0,039.3,032.5,026.2,0001.0,0021.15,0006.33,0004.30
2024-05-29 06:27:00,SystemResetWarning,0834.2,5.00,000.00,030.8,030.0,000.0,039.3,032.5,026.2,0001.1,0020.92,0006.30,0004.31
2024-05-29 06:28:00,SystemResetWarning,0834.2,5.01,000.00,030.8,030.0,000.0,039.3,032.5,026.2,0001.7,0019.37,0006.32,0004.31
2024-05-29 06:29:00,SystemResetWarning,0834.2,5.00,000.00,030.8,030.0,000.0,039.3,032.5,026.1,0001.6,0018.55,0006.37,0004.32
2024-05-29 06:30:00,SystemResetWarning,0834.2,5.00,000.00,030.8,030.0,000.0,039.3,032.5,026.2,0001.0,0018.44,0006.45,0004.36
2024-05-29 06:31:00,SystemResetWarning,0834.2,5.00,000.00,030.8,030.0,000.0,039.3,032.5,026.1,0001.0,0018.65,0006.52,0004.38
2024-05-29 06:32:00,SystemResetWarning,0834.2,5.00,000.00,030.8,030.0,000.0,039.3,032.5,026.1,0001.0,0019.27,0006.51,0004.37
2024-05-29 06:33:00,SystemResetWarning,0834.2,5.00,000.00,030.8,030.0,000.0,039.3,032.5,026.2,0001.2,0019.31,0006.60,0004.37
2024-05-29 06:34:00,SystemResetWarning,0834.2,5.01,000.00,030.9,030.0,000.0,039.3,032.5,026.2,0001.5,0020.87,0006.64,0004.38
2024-05-29 06:35:00,SystemResetWarning,0834.2,4.99,000.00,030.9,030.0,000.0,039.3,032.5,025.9,0002.1,0021.45,0006.67,0004.40
2024-05-29 06:36:00,SystemResetWarning,0834.3,4.99,000.00,030.9,030.0,000.0,039.3,032.6,025.9,0002.3,0021.40,0006.67,0004.42
2024-05-29 06:37:00,SystemResetWarning,0834.2,4.99,000.00,030.9,030.1,000.0,039.3,032.5,026.0,0002.5,0021.42,0006.67,0004.45
2024-05-29 06:38:00,SystemResetWarning,0834.2,5.01,000.00,030.9,030.1,000.0,039.3,032.5,026.0,0002.4,0020.90,0006.70,0004.45
2024-05-29 06:39:00,SystemResetWarning,0834.2,5.01,000.00,030.9,030.1,000.0,039.3,032.5,025.9,0002.1,0021.27,0006.74,0004.46
2024-05-29 06:40:00,SystemResetWarning,0834.2,5.00,000.00,030.9,030.1,000.0,039.3,032.5,025.9,0002.0,0021.54,0006.74,0004.47
2024-05-29 06:41:00,SystemResetWarning,0834.2,4.99,000.00,030.9,030.1,000.0,039.3,032.6,025.9,0001.7,0021.32,0006.60,0004.46
2024-05-29 06:42:00,SystemResetWarning,0834.2,5.00,000.00,030.9,030.1,000.0,039.3,032.6,025.9,0002.0,0021.07,0006.55,0004.47
2024-05-29 06:43:00,SystemResetWarning,0834.1,5.00,000.00,030.9,030.1,000.0,039.3,032.6,025.8,0002.0,0020.68,0006.55,0004.50
2024-05-29 06:44:00,SystemResetWarning,0834.2,5.01,000.00,030.9,030.1,000.0,039.3,032.6,025.8,0002.0,0022.06,0006.52,0004.53
2024-05-29 06:45:00,SystemResetWarning,0834.1,5.01,000.00,030.9,030.1,000.0,039.3,032.6,025.8,0001.8,0022.73,0006.53,0004.55
2024-05-29 06:46:00,SystemResetWarning,0834.1,5.00,000.00,030.9,030.1,000.0,039.3,032.6,025.8,0001.2,0022.78,0006.59,0004.56
2024-05-29 06:47:00,SystemResetWarning,0834.1,4.99,000.00,030.9,030.1,000.0,039.3,032.6,025.8,0000.7,0023.67,0006.56,0004.55
2024-05-29 06:48:00,SystemResetWarning,0834.1,5.00,000.00,030.9,030.1,000.0,039.3,032.6,025.8,0000.5,0022.84,0006.49,0004.53
2024-05-29 06:49:00,SystemResetWarning,0834.1,5.01,000.00,030.9,030.1,000.0,039.3,032.6,025.7,0000.3,0023.32,0006.47,0004.54
2024-05-29 06:50:00,SystemResetWarning,0834.1,5.01,000.00,030.9,030.1,000.0,039.3,032.6,025.8,0000.5,0023.49,0006.41,0004.55
2024-05-29 06:51:00,SystemResetWarning,0834.1,5.00,000.00,030.9,030.1,000.0,039.3,032.6,025.7,0000.5,0023.38,0006.41,0004.55
2024-05-29 06:52:00,SystemResetWarning,0834.0,4.99,000.00,030.9,030.1,000.0,039.3,032.6,025.8,0000.9,0023.60,0006.50,0004.56
2024-05-29 06:53:00,SystemResetWarning,0834.0,5.00,000.00,030.9,030.1,000.0,039.3,032.6,025.9,0000.9,0024.14,0006.48,0004.55
2024-05-29 06:54:00,SystemResetWarning,0834.0,4.99,000.00,030.9,030.1,000.0,039.3,032.6,026.0,0001.0,0023.41,0006.49,0004.53
2024-05-29 06:55:00,SystemResetWarning,0834.0,5.00,000.00,030.9,030.1,000.0,039.3,032.5,026.0,0001.4,0021.72,0006.48,0004.50
2024-05-29 06:56:00,SystemResetWarning,0834.0,5.00,000.00,030.9,030.1,000.0,039.3,032.5,025.9,0001.9,0020.77,0006.49,0004.50
2024-05-29 06:57:00,SystemResetWarning,0833.9,5.01,000.00,030.9,030.1,000.0,039.3,032.5,025.8,0002.5,0019.97,0006.47,0004.48
2024-05-29 06:58:00,SystemResetWarning,0833.9,5.01,000.00,030.9,030.0,000.0,039.3,032.5,025.8,0002.9,0019.20,0006.52,0004.48
2024-05-29 06:59:00,SystemResetWarning,0833.9,5.00,000.00,030.9,030.0,000.0,039.3,032.5,025.9,0002.9,0018.88,0006.57,0004.49
